Flag for Congo Weather past 2 weeks in Pointe-Noire, Congo

Now
75 °F

Passing clouds.


Feels Like: 74 °F
Forecast: 79 / 89 °F
Wind: 2 mph from East

Location: Pointe Airport-Noire

Current Time: Apr 21, 2015 at 6:41:52 AM

Latest Report: Apr 21, 2015 at 6:00 AM


Visibility: N/A

Pressure: 29.83 "Hg

Humidity: 94%

Dew point: 73 °F

Location of Pointe-NoireLocation

Historic Weather in Pointe-Noire — Graph

°F

Pointe-Noire temperature yesterday

Maximum temperature yesterday: 88 °F (at 2:00 PM)
Minimum temperature yesterday: 77 °F (at 11:00 PM)
Average temperature yesterday: 82 °F

Past Weeks' High & Low Weather Summary

 TemperatureHumidityPressure
High88 °F (Apr 8, 12:00 PM)100% (Apr 6, 5:00 AM)29.95 "Hg (Apr 6, 5:00 AM)
Low73 °F (Apr 6, 5:00 AM)62% (Apr 6, 11:00 AM)29.77 "Hg (Apr 14, 4:00 PM)
Average82 °F82%29.87 "Hg
* Reported Apr 6 5:00 AM — Apr 21 5:00 AM, Pointe-Noire, Weather by CustomWeather, © 2015

Note: Actual official high and low records may vary slightly from our data, if they occured in-between our weather recording intervals... More about our weather records

Advertising

Pointe-Noire weather history for previous 24 hours

 ConditionsComfort  
Time TempWeatherWind HumidityBarometerVisibility
5:00 AM
Tue, Apr 21
75 °FPassing clouds.3 mph94%29.83 "HgN/A
4:00 AM75 °FPassing clouds.2 mph94%29.83 "HgN/A
3:00 AM77 °FPassing clouds.5 mph94%29.83 "Hg5 mi
2:00 AM77 °FPassing clouds.5 mph94%29.83 "Hg5 mi
1:00 AM77 °FPassing clouds.3 mph94%29.83 "Hg5 mi
12:00 AM77 °FPassing clouds.3 mph100%29.89 "Hg5 mi
11:00 PM
Mon, Apr 20
77 °FPassing clouds.2 mph100%29.86 "Hg5 mi
10:00 PM79 °FPassing clouds.3 mph94%29.86 "Hg5 mi
9:00 PM79 °FThunderstorms. Passing clouds.2 mph89%29.83 "Hg4 mi
8:00 PM79 °FThunderstorms. Passing clouds.2 mph89%29.80 "Hg2 mi
7:00 PM79 °FThunderstorms. Passing clouds.3 mph89%29.80 "Hg2 mi
6:00 PM79 °FThunderstorms. Scattered clouds.5 mph94%29.83 "Hg2 mi
5:00 PM81 °FThunderstorms. Partly sunny.7 mph84%29.83 "Hg2 mi
4:00 PM84 °FThunderstorms. Scattered clouds.8 mph79%29.80 "HgN/A
3:00 PM86 °FScattered clouds.13 mph75%29.77 "HgN/A
2:00 PM88 °FScattered clouds.13 mph70%29.80 "HgN/A
1:00 PM86 °FScattered clouds.14 mph70%29.86 "HgN/A
12:00 PM86 °FScattered clouds.13 mph70%29.89 "HgN/A
11:00 AM86 °FScattered clouds.12 mph70%29.89 "HgN/A
10:00 AM86 °FScattered clouds.5 mph70%29.92 "HgN/A
9:00 AM84 °FScattered clouds.5 mph84%29.89 "HgN/A
8:00 AM81 °FScattered clouds.2 mph89%29.89 "Hg4 mi
7:00 AM79 °FScattered clouds.3 mph94%29.89 "Hg4 mi
6:00 AM79 °FPassing clouds.3 mph94%29.86 "HgN/A
Weather by CustomWeather, © 2015

See weather overviewHow to use our weather pages